Time,TemperatureF,DewpointF,PressureIn,WindDirection,WindDirectionDegrees,WindSpeedMPH,WindSpeedGustMPH,Humidity,HourlyPrecipIn,Conditions,Clouds,dailyrainin,SoftwareType,DateUTC
2011-02-21 00:03:00,31.6,25.3,29.82,WNW,292,0.0,0.0,77,0.00,,,0.00,open2300-1.11,2011-02-21 07:03:00,
2011-02-21 00:13:00,31.1,24.7,29.82,WNW,292,0.0,0.0,77,0.00,,,0.00,open2300-1.11,2011-02-21 07:13:00,
2011-02-21 00:23:00,31.1,24.7,29.82,WNW,292,0.0,0.0,77,0.00,,,0.00,open2300-1.11,2011-02-21 07:23:00,
2011-02-21 00:33:00,30.9,24.5,29.82,WNW,292,0.0,0.0,77,0.00,,,0.00,open2300-1.11,2011-02-21 07:33:00,
2011-02-21 00:43:00,31.1,24.7,29.82,WNW,292,0.0,0.0,77,0.00,,,0.00,open2300-1.11,2011-02-21 07:43:00,
2011-02-21 00:53:00,31.3,24.9,29.83,WNW,292,0.0,0.0,77,0.00,,,0.00,open2300-1.11,2011-02-21 07:53:00,
2011-02-21 01:03:00,31.1,24.7,29.82,WNW,292,0.0,0.0,77,0.00,,,0.00,open2300-1.11,2011-02-21 08:03:00,
2011-02-21 01:13:00,31.3,25.2,29.83,WNW,292,0.0,0.0,78,0.00,,,0.00,open2300-1.11,2011-02-21 08:13:00,
2011-02-21 01:23:00,31.3,25.2,29.83,WNW,292,0.0,0.0,78,0.00,,,0.00,open2300-1.11,2011-02-21 08:23:00,
2011-02-21 01:33:00,31.3,25.2,29.83,WNW,292,0.0,0.0,78,0.00,,,0.00,open2300-1.11,2011-02-21 08:33:00,
2011-02-21 01:43:00,31.3,25.2,29.83,WNW,292,0.0,0.0,78,0.00,,,0.00,open2300-1.11,2011-02-21 08:43:00,
2011-02-21 01:53:00,31.3,25.2,29.84,WNW,292,0.0,0.0,78,0.00,,,0.00,open2300-1.11,2011-02-21 08:53:00,
2011-02-21 02:03:00,31.3,25.2,29.84,WNW,292,0.0,0.0,78,0.00,,,0.00,open2300-1.11,2011-02-21 09:03:00,
2011-02-21 02:13:00,30.7,24.7,29.84,WNW,292,0.0,0.0,78,0.00,,,0.00,open2300-1.11,2011-02-21 09:13:00,
2011-02-21 02:23:00,30.7,24.7,29.83,WNW,292,0.0,0.0,78,0.00,,,0.00,open2300-1.11,2011-02-21 09:23:00,
2011-02-21 02:33:00,30.6,24.5,29.83,WNW,292,0.0,0.0,78,0.00,,,0.00,open2300-1.11,2011-02-21 09:33:00,
2011-02-21 02:43:00,30.7,24.7,29.84,WNW,292,0.0,0.0,78,0.00,,,0.00,open2300-1.11,2011-02-21 09:43:00,
2011-02-21 02:53:00,30.7,24.7,29.84,WNW,292,0.0,0.0,78,0.00,,,0.00,open2300-1.11,2011-02-21 09:53:00,
2011-02-21 03:03:00,30.7,24.7,29.84,WNW,292,0.0,0.0,78,0.00,,,0.00,open2300-1.11,2011-02-21 10:03:00,
2011-02-21 03:13:00,30.7,24.7,29.84,WNW,292,0.0,0.0,78,0.00,,,0.00,open2300-1.11,2011-02-21 10:13:00,
2011-02-21 03:23:00,30.6,24.5,29.84,WNW,292,0.0,0.0,78,0.00,,,0.00,open2300-1.11,2011-02-21 10:23:00,
2011-02-21 03:33:00,30.6,24.5,29.84,WNW,292,0.0,0.0,78,0.00,,,0.00,open2300-1.11,2011-02-21 10:33:00,
2011-02-21 03:43:00,30.7,24.7,29.85,WNW,292,0.0,0.0,78,0.00,,,0.00,open2300-1.11,2011-02-21 10:43:00,
2011-02-21 03:53:00,30.7,24.7,29.85,WNW,292,0.0,0.0,78,0.00,,,0.00,open2300-1.11,2011-02-21 10:53:00,
2011-02-21 04:03:00,30.9,25.2,29.84,WNW,292,0.0,0.0,79,0.00,,,0.00,open2300-1.11,2011-02-21 11:03:00,
2011-02-21 04:13:00,30.9,25.2,29.84,WNW,292,0.0,0.0,79,0.00,,,0.00,open2300-1.11,2011-02-21 11:13:00,
2011-02-21 04:23:00,31.1,25.4,29.85,WNW,292,0.0,0.0,79,0.00,,,0.00,open2300-1.11,2011-02-21 11:23:00,
2011-02-21 04:33:00,31.3,25.6,29.85,WNW,292,0.0,0.0,79,0.00,,,0.00,open2300-1.11,2011-02-21 11:33:00,
2011-02-21 04:43:00,31.3,25.9,29.85,WNW,292,0.0,0.0,80,0.00,,,0.00,open2300-1.11,2011-02-21 11:43:00,
2011-02-21 04:53:00,31.1,25.7,29.85,WNW,292,0.0,0.0,80,0.00,,,0.00,open2300-1.11,2011-02-21 11:53:00,
2011-02-21 05:03:00,31.3,25.9,29.86,WNW,292,0.0,0.0,80,0.00,,,0.00,open2300-1.11,2011-02-21 12:03:00,
2011-02-21 05:13:00,31.3,25.9,29.86,WNW,292,0.0,0.0,80,0.00,,,0.00,open2300-1.11,2011-02-21 12:13:00,
2011-02-21 05:23:00,31.6,26.2,29.86,WNW,292,0.0,0.0,80,0.00,,,0.00,open2300-1.11,2011-02-21 12:23:00,
2011-02-21 05:33:00,31.3,25.9,29.86,WNW,292,0.0,0.0,80,0.00,,,0.00,open2300-1.11,2011-02-21 12:33:00,
2011-02-21 05:43:00,31.3,25.9,29.86,WNW,292,0.0,0.0,80,0.00,,,0.00,open2300-1.11,2011-02-21 12:43:00,
2011-02-21 05:53:00,31.5,26.1,29.86,North,0,0.0,0.0,80,0.00,,,0.00,open2300-1.11,2011-02-21 12:53:00,
2011-02-21 06:03:00,31.3,25.9,29.86,East,90,0.0,0.0,80,0.00,,,0.00,open2300-1.11,2011-02-21 13:03:00,
2011-02-21 06:13:00,31.1,25.7,29.87,ENE,67,0.0,0.0,80,0.00,,,0.00,open2300-1.11,2011-02-21 13:13:00,
2011-02-21 06:23:00,30.9,25.5,29.86,ENE,67,0.0,0.0,80,0.00,,,0.00,open2300-1.11,2011-02-21 13:23:00,
2011-02-21 06:33:00,30.7,25.3,29.86,East,90,0.0,0.0,80,0.00,,,0.00,open2300-1.11,2011-02-21 13:33:00,
2011-02-21 06:43:00,30.9,25.5,29.87,East,90,0.0,0.0,80,0.00,,,0.00,open2300-1.11,2011-02-21 13:43:00,
2011-02-21 06:53:00,30.9,25.5,29.87,East,90,0.0,0.0,80,0.00,,,0.00,open2300-1.11,2011-02-21 13:53:00,
2011-02-21 07:03:00,30.9,25.2,29.87,East,90,0.0,0.0,79,0.00,,,0.00,open2300-1.11,2011-02-21 14:03:00,
2011-02-21 07:13:00,30.9,25.5,29.88,East,90,0.0,0.0,80,0.00,,,0.00,open2300-1.11,2011-02-21 14:13:00,
2011-02-21 07:23:00,30.7,25.0,29.88,East,90,0.0,0.0,79,0.00,,,0.00,open2300-1.11,2011-02-21 14:23:00,
2011-02-21 07:33:00,30.7,25.0,29.89,East,90,0.0,0.0,79,0.00,,,0.00,open2300-1.11,2011-02-21 14:33:00,
2011-02-21 07:43:00,30.9,25.2,29.89,East,90,0.0,0.0,79,0.00,,,0.00,open2300-1.11,2011-02-21 14:43:00,
2011-02-21 07:53:00,30.9,25.2,29.89,East,90,0.0,0.0,79,0.00,,,0.00,open2300-1.11,2011-02-21 14:53:00,
2011-02-21 08:03:00,30.9,25.2,29.89,East,90,0.0,0.0,79,0.00,,,0.00,open2300-1.11,2011-02-21 15:03:00,
2011-02-21 08:13:00,30.9,25.2,29.89,East,90,0.0,0.0,79,0.00,,,0.00,open2300-1.11,2011-02-21 15:13:00,
2011-02-21 08:23:00,31.3,25.6,29.89,East,90,0.0,0.0,79,0.00,,,0.00,open2300-1.11,2011-02-21 15:23:00,
2011-02-21 08:33:00,31.6,25.9,29.90,East,90,0.0,0.0,79,0.00,,,0.00,open2300-1.11,2011-02-21 15:33:00,
2011-02-21 08:43:00,32.2,26.4,29.90,East,90,0.0,0.0,79,0.00,,,0.00,open2300-1.11,2011-02-21 15:43:00,
2011-02-21 08:53:00,32.5,26.4,29.90,East,90,0.0,0.0,78,0.00,,,0.00,open2300-1.11,2011-02-21 15:53:00,
2011-02-21 09:03:00,32.9,26.8,29.90,East,90,0.0,0.0,78,0.00,,,0.00,open2300-1.11,2011-02-21 16:03:00,
2011-02-21 09:13:00,33.4,26.9,29.90,East,90,0.0,0.0,77,0.00,,,0.00,open2300-1.11,2011-02-21 16:13:00,
2011-02-21 09:23:00,34.0,27.4,29.90,ENE,67,0.0,0.0,77,0.00,,,0.00,open2300-1.11,2011-02-21 16:23:00,
2011-02-21 09:33:00,34.3,27.8,29.91,SW,225,0.0,0.0,77,0.02,,,0.02,open2300-1.11,2011-02-21 16:33:00,
2011-02-21 09:43:00,34.9,28.0,29.90,West,270,0.0,0.0,76,0.04,,,0.04,open2300-1.11,2011-02-21 16:43:00,
2011-02-21 09:53:00,35.4,28.2,29.90,WSW,247,0.0,0.0,75,0.04,,,0.04,open2300-1.11,2011-02-21 16:53:00,
2011-02-21 10:03:00,35.8,27.9,29.90,SW,225,0.0,0.0,73,0.06,,,0.06,open2300-1.11,2011-02-21 17:03:00,
2011-02-21 10:13:00,36.5,28.6,29.90,South,180,0.0,2.0,73,0.08,,,0.08,open2300-1.11,2011-02-21 17:13:00,
2011-02-21 10:23:00,37.0,28.5,29.90,SSW,202,0.9,0.9,71,0.08,,,0.08,open2300-1.11,2011-02-21 17:23:00,
2011-02-21 10:33:00,37.2,28.7,29.90,SSW,202,0.0,1.8,71,0.06,,,0.08,open2300-1.11,2011-02-21 17:33:00,
2011-02-21 10:43:00,37.9,29.4,29.90,WSW,247,0.0,1.8,71,0.04,,,0.08,open2300-1.11,2011-02-21 17:43:00,
2011-02-21 10:53:00,38.5,29.5,29.90,SW,225,1.3,2.0,70,0.02,,,0.08,open2300-1.11,2011-02-21 17:53:00,
2011-02-21 11:03:00,39.4,30.0,29.90,SW,225,0.0,2.9,69,0.02,,,0.08,open2300-1.11,2011-02-21 18:03:00,
2011-02-21 11:13:00,39.9,30.9,29.90,NNE,22,1.3,1.3,70,0.00,,,0.08,open2300-1.11,2011-02-21 18:13:00,
2011-02-21 11:23:00,40.8,31.1,29.89,SSW,202,1.3,1.3,68,0.00,,,0.08,open2300-1.11,2011-02-21 18:23:00,
2011-02-21 11:33:00,41.5,31.8,29.89,West,270,0.0,4.2,68,0.00,,,0.08,open2300-1.11,2011-02-21 18:33:00,
2011-02-21 11:43:00,42.4,33.0,29.89,WSW,247,2.0,4.9,69,0.00,,,0.08,open2300-1.11,2011-02-21 18:43:00,
2011-02-21 11:53:00,42.6,32.0,29.87,West,270,0.0,4.9,66,0.00,,,0.08,open2300-1.11,2011-02-21 18:53:00,
2011-02-21 12:03:00,42.6,31.6,29.86,WSW,247,0.0,1.6,65,0.00,,,0.08,open2300-1.11,2011-02-21 19:03:00,
2011-02-21 12:13:00,43.2,31.4,29.86,WSW,247,0.0,2.9,63,0.00,,,0.08,open2300-1.11,2011-02-21 19:13:00,
2011-02-21 12:23:00,43.7,31.9,29.86,West,270,1.1,6.5,63,0.00,,,0.08,open2300-1.11,2011-02-21 19:23:00,
2011-02-21 12:33:00,44.6,33.5,29.86,West,270,1.3,3.4,65,0.00,,,0.08,open2300-1.11,2011-02-21 19:33:00,
2011-02-21 12:43:00,45.3,34.2,29.85,NNW,337,0.0,2.5,65,0.00,,,0.08,open2300-1.11,2011-02-21 19:43:00,
2011-02-21 12:53:00,46.0,33.7,29.85,NNE,22,0.0,0.0,62,0.00,,,0.08,open2300-1.11,2011-02-21 19:53:00,
2011-02-21 13:03:00,45.7,33.0,29.85,SW,225,3.4,4.2,61,0.00,,,0.08,open2300-1.11,2011-02-21 20:03:00,
2011-02-21 13:13:00,46.2,33.1,29.84,WSW,247,3.6,4.7,60,0.00,,,0.08,open2300-1.11,2011-02-21 20:13:00,
2011-02-21 13:23:00,46.8,33.6,29.84,NNW,337,3.1,3.6,60,0.00,,,0.08,open2300-1.11,2011-02-21 20:23:00,
2011-02-21 13:33:00,46.9,33.3,29.84,WSW,247,4.9,4.9,59,0.00,,,0.08,open2300-1.11,2011-02-21 20:33:00,
2011-02-21 13:43:00,47.8,34.2,29.84,West,270,3.8,4.9,59,0.00,,,0.08,open2300-1.11,2011-02-21 20:43:00,
2011-02-21 13:53:00,47.8,33.8,29.84,NW,315,2.5,4.2,58,0.00,,,0.08,open2300-1.11,2011-02-21 20:53:00,
2011-02-21 14:03:00,48.2,34.1,29.83,SW,225,3.8,5.8,58,0.00,,,0.08,open2300-1.11,2011-02-21 21:03:00,
2011-02-21 14:13:00,48.6,33.1,29.83,West,270,0.0,5.8,55,0.00,,,0.08,open2300-1.11,2011-02-21 21:13:00,
2011-02-21 14:23:00,48.6,34.0,29.83,West,270,0.7,5.8,57,0.00,,,0.08,open2300-1.11,2011-02-21 21:23:00,
2011-02-21 14:33:00,48.7,33.7,29.83,West,270,0.0,4.5,56,0.00,,,0.08,open2300-1.11,2011-02-21 21:33:00,
2011-02-21 14:43:00,49.5,33.9,29.83,WNW,292,0.0,6.0,55,0.00,,,0.08,open2300-1.11,2011-02-21 21:43:00,
2011-02-21 14:53:00,49.1,33.6,29.82,WNW,292,1.1,4.9,55,0.00,,,0.08,open2300-1.11,2011-02-21 21:53:00,
2011-02-21 15:03:00,49.6,34.1,29.82,WSW,247,1.1,1.6,55,0.00,,,0.08,open2300-1.11,2011-02-21 22:03:00,
2011-02-21 15:13:00,49.8,33.3,29.82,WNW,292,0.0,3.6,53,0.00,,,0.08,open2300-1.11,2011-02-21 22:13:00,
2011-02-21 15:23:00,49.6,33.2,29.82,WNW,292,0.0,4.7,53,0.00,,,0.08,open2300-1.11,2011-02-21 22:23:00,
2011-02-21 15:33:00,49.8,33.3,29.82,West,270,0.0,0.0,53,0.00,,,0.08,open2300-1.11,2011-02-21 22:33:00,
2011-02-21 15:43:00,49.1,32.2,29.82,NNW,337,0.0,2.5,52,0.00,,,0.08,open2300-1.11,2011-02-21 22:43:00,
2011-02-21 15:53:00,48.6,30.7,29.82,WSW,247,0.0,0.0,50,0.00,,,0.08,open2300-1.11,2011-02-21 22:53:00,
2011-02-21 16:03:00,48.6,31.2,29.82,WSW,247,1.6,1.6,51,0.00,,,0.08,open2300-1.11,2011-02-21 23:03:00,
2011-02-21 16:13:00,49.6,32.7,29.82,WSW,247,3.1,3.1,52,0.00,,,0.08,open2300-1.11,2011-02-21 23:13:00,
2011-02-21 16:23:00,50.0,32.2,29.82,NNW,337,0.0,3.4,50,0.00,,,0.08,open2300-1.11,2011-02-21 23:23:00,
2011-02-21 16:33:00,49.3,31.9,29.82,West,270,0.0,3.1,51,0.00,,,0.08,open2300-1.11,2011-02-21 23:33:00,
2011-02-21 16:43:00,49.3,30.9,29.82,NNW,337,2.5,4.2,49,0.00,,,0.08,open2300-1.11,2011-02-21 23:43:00,
2011-02-21 16:53:00,49.5,31.6,29.83,NNW,337,0.0,2.5,50,0.00,,,0.08,open2300-1.11,2011-02-21 23:53:00,
2011-02-21 17:03:00,48.6,30.2,29.83,WNW,292,0.0,0.0,49,0.00,,,0.08,open2300-1.11,2011-02-22 00:03:00,
2011-02-21 17:13:00,47.3,29.0,29.83,WNW,292,0.0,0.0,49,0.00,,,0.08,open2300-1.11,2011-02-22 00:13:00,
2011-02-21 17:23:00,46.6,29.4,29.84,WNW,292,0.0,0.9,51,0.00,,,0.08,open2300-1.11,2011-02-22 00:23:00,
2011-02-21 17:33:00,45.7,29.0,29.84,West,270,0.0,0.0,52,0.00,,,0.08,open2300-1.11,2011-02-22 00:33:00,
2011-02-21 17:43:00,45.1,29.0,29.83,West,270,0.0,0.0,53,0.00,,,0.08,open2300-1.11,2011-02-22 00:43:00,
2011-02-21 17:53:00,44.4,28.8,29.83,West,270,0.0,0.0,54,0.00,,,0.08,open2300-1.11,2011-02-22 00:53:00,
2011-02-21 18:03:00,43.5,28.4,29.84,West,270,0.0,0.0,55,0.00,,,0.08,open2300-1.11,2011-02-22 01:03:00,
2011-02-21 18:13:00,42.6,27.5,29.84,West,270,0.0,0.0,55,0.00,,,0.08,open2300-1.11,2011-02-22 01:13:00,
2011-02-21 18:23:00,41.5,27.4,29.84,West,270,0.0,0.0,57,0.00,,,0.08,open2300-1.11,2011-02-22 01:23:00,
2011-02-21 18:33:00,41.0,27.8,29.84,West,270,0.0,0.0,59,0.00,,,0.08,open2300-1.11,2011-02-22 01:33:00,
2011-02-21 18:43:00,40.6,28.2,29.85,West,270,0.0,0.0,61,0.00,,,0.08,open2300-1.11,2011-02-22 01:43:00,
2011-02-21 18:53:00,39.7,27.0,29.85,West,270,0.0,0.0,60,0.00,,,0.08,open2300-1.11,2011-02-22 01:53:00,
2011-02-21 19:03:00,39.0,26.6,29.85,West,270,0.0,0.0,61,0.00,,,0.08,open2300-1.11,2011-02-22 02:03:00,
2011-02-21 19:13:00,38.3,26.0,29.85,West,270,0.0,0.0,61,0.00,,,0.08,open2300-1.11,2011-02-22 02:13:00,
2011-02-21 19:23:00,37.8,25.9,29.85,West,270,0.0,0.0,62,0.00,,,0.08,open2300-1.11,2011-02-22 02:23:00,
2011-02-21 19:33:00,37.2,25.4,29.86,West,270,0.0,0.0,62,0.00,,,0.08,open2300-1.11,2011-02-22 02:33:00,
2011-02-21 22:33:00,32.7,23.6,29.88,ENE,67,1.3,1.3,69,0.00,,,0.08,open2300-1.11,2011-02-22 05:33:00,
2011-02-21 22:35:00,32.7,23.6,29.88,ENE,67,1.3,1.3,69,0.00,,,0.08,open2300-1.11,2011-02-22 05:35:00,
2011-02-21 22:43:00,32.7,24.0,29.88,SSE,157,1.8,1.8,70,0.00,,,0.08,open2300-1.11,2011-02-22 05:43:00,
2011-02-21 22:53:00,32.7,24.0,29.87,SE,135,0.0,4.7,70,0.00,,,0.08,open2300-1.11,2011-02-22 05:53:00,
2011-02-21 23:03:00,32.9,24.2,29.87,SE,135,3.4,3.4,70,0.00,,,0.08,open2300-1.11,2011-02-22 06:03:00,
2011-02-21 23:13:00,32.9,24.2,29.87,SE,135,0.9,3.4,70,0.00,,,0.08,open2300-1.11,2011-02-22 06:13:00,
2011-02-21 23:23:00,32.7,24.3,29.87,East,90,0.0,2.0,71,0.00,,,0.08,open2300-1.11,2011-02-22 06:23:00,
2011-02-21 23:33:00,32.5,24.2,29.86,East,90,2.2,2.9,71,0.00,,,0.08,open2300-1.11,2011-02-22 06:33:00,
2011-02-21 23:43:00,32.5,24.2,29.87,East,90,0.7,2.2,71,0.00,,,0.08,open2300-1.11,2011-02-22 06:43:00,
2011-02-21 23:53:00,32.4,24.3,29.87,East,90,1.3,1.3,72,0.00,,,0.08,open2300-1.11,2011-02-22 06:53:00,